owner,sensor,date,latitude,longitude,vertical_datum,sea_water_practical_salinity,qcFlag 
LUMCON,ioos:station:LUMCON:103:1,2011-09-01T01:00:00Z,30.1889,-90.1683,0.0,1.076,1111122 
LUMCON,ioos:station:LUMCON:103:1,2011-09-01T02:00:00Z,30.1889,-90.1683,0.0,1.074,1111122 
LUMCON,ioos:station:LUMCON:103:1,2011-09-01T03:00:00Z,30.1889,-90.1683,0.0,1.06,1111122 
LUMCON,ioos:station:LUMCON:103:1,2011-09-01T04:00:00Z,30.1889,-90.1683,0.0,1.077,1111122 
LUMCON,ioos:station:LUMCON:103:1,2011-09-01T05:00:00Z,30.1889,-90.1683,0.0,1.057,1111122 
LUMCON,ioos:station:LUMCON:103:1,2011-09-01T06:00:00Z,30.1889,-90.1683,0.0,1.064,1111122 
LUMCON,ioos:station:LUMCON:103:1,2011-09-01T07:00:00Z,30.1889,-90.1683,0.0,1.063,1111122 
LUMCON,ioos:station:LUMCON:103:1,2011-09-01T09:00:00Z,30.1889,-90.1683,0.0,1.061,1111122 
LUMCON,ioos:station:LUMCON:103:1,2011-09-01T10:00:00Z,30.1889,-90.1683,0.0,0.999,1111122 
LUMCON,ioos:station:LUMCON:103:1,2011-09-01T11:00:00Z,30.1889,-90.1683,0.0,0.784,1111122 
LUMCON,ioos:station:LUMCON:103:1,2011-09-01T12:00:00Z,30.1889,-90.1683,0.0,0.691,1111122 
LUMCON,ioos:station:LUMCON:103:1,2011-09-01T13:00:00Z,30.1889,-90.1683,0.0,0.769,1111122 
LUMCON,ioos:station:LUMCON:103:1,2011-09-01T14:00:00Z,30.1889,-90.1683,0.0,0.88,1111122 
LUMCON,ioos:station:LUMCON:103:1,2011-09-01T16:00:00Z,30.1889,-90.1683,0.0,1.043,1111122 
LUMCON,ioos:station:LUMCON:103:1,2011-09-01T17:00:00Z,30.1889,-90.1683,0.0,1.061,1111122 
LUMCON,ioos:station:LUMCON:103:1,2011-09-01T18:00:00Z,30.1889,-90.1683,0.0,1.06,1111122 
LUMCON,ioos:station:LUMCON:103:1,2011-09-01T20:00:00Z,30.1889,-90.1683,0.0,1.059,1111122 
LUMCON,ioos:station:LUMCON:103:1,2011-09-01T22:00:00Z,30.1889,-90.1683,0.0,1.056,1111122 
LUMCON,ioos:station:LUMCON:103:1,2011-09-02T01:00:00Z,30.1889,-90.1683,0.0,1.077,1111122 
LUMCON,ioos:station:LUMCON:103:1,2011-09-02T02:00:00Z,30.1889,-90.1683,0.0,1.097,1111122 
LUMCON,ioos:station:LUMCON:103:1,2011-09-02T03:00:00Z,30.1889,-90.1683,0.0,1.075,1111122 
LUMCON,ioos:station:LUMCON:103:1,2011-09-02T04:00:00Z,30.1889,-90.1683,0.0,1.068,1111122 
LUMCON,ioos:station:LUMCON:103:1,2011-09-02T05:00:00Z,30.1889,-90.1683,0.0,1.049,1111122 
LUMCON,ioos:station:LUMCON:103:1,2011-09-02T06:00:00Z,30.1889,-90.1683,0.0,1.045,1111122 
LUMCON,ioos:station:LUMCON:103:1,2011-09-02T08:00:00Z,30.1889,-90.1683,0.0,1.049,1111122 
LUMCON,ioos:station:LUMCON:103:1,2011-09-02T10:00:00Z,30.1889,-90.1683,0.0,0.998,1111122 
LUMCON,ioos:station:LUMCON:103:1,2011-09-02T11:00:00Z,30.1889,-90.1683,0.0,0.996,1111122 
LUMCON,ioos:station:LUMCON:103:1,2011-09-02T12:00:00Z,30.1889,-90.1683,0.0,0.992,1111122 
LUMCON,ioos:station:LUMCON:103:1,2011-09-02T13:00:00Z,30.1889,-90.1683,0.0,0.995,1111122 
LUMCON,ioos:station:LUMCON:103:1,2011-09-02T17:00:00Z,30.1889,-90.1683,0.0,0.994,1111122 
LUMCON,ioos:station:LUMCON:103:1,2011-09-02T18:00:00Z,30.1889,-90.1683,0.0,0.999,1111122 
LUMCON,ioos:station:LUMCON:103:1,2011-09-02T19:00:00Z,30.1889,-90.1683,0.0,0.988,1111122 
LUMCON,ioos:station:LUMCON:103:1,2011-09-02T20:00:00Z,30.1889,-90.1683,0.0,0.99,1111122 
LUMCON,ioos:station:LUMCON:103:1,2011-09-02T21:00:00Z,30.1889,-90.1683,0.0,0.997,1111122 
LUMCON,ioos:station:LUMCON:103:1,2011-09-02T22:00:00Z,30.1889,-90.1683,0.0,0.987,1111122 
LUMCON,ioos:station:LUMCON:103:1,2011-09-03T01:00:00Z,30.1889,-90.1683,0.0,1.042,1111122 
LUMCON,ioos:station:LUMCON:103:1,2011-09-03T02:00:00Z,30.1889,-90.1683,0.0,1.046,1111122 
LUMCON,ioos:station:LUMCON:103:1,2011-09-03T03:00:00Z,30.1889,-90.1683,0.0,1.052,1111122 
LUMCON,ioos:station:LUMCON:103:1,2011-09-03T04:00:00Z,30.1889,-90.1683,0.0,1.049,1111122 
LUMCON,ioos:station:LUMCON:103:1,2011-09-04T01:00:00Z,30.1889,-90.1683,0.0,0.995,1111122 
LUMCON,ioos:station:LUMCON:103:1,2011-09-04T02:00:00Z,30.1889,-90.1683,0.0,0.986,1111122 
LUMCON,ioos:station:LUMCON:103:1,2011-09-04T03:00:00Z,30.1889,-90.1683,0.0,0.992,1111122 
LUMCON,ioos:station:LUMCON:103:1,2011-09-04T04:00:00Z,30.1889,-90.1683,0.0,0.996,1111122 
LUMCON,ioos:station:LUMCON:103:1,2011-09-05T16:00:00Z,30.1889,-90.1683,0.0,1.125,1111122 
LUMCON,ioos:station:LUMCON:103:1,2011-09-05T18:00:00Z,30.1889,-90.1683,0.0,1.156,1111122 
LUMCON,ioos:station:LUMCON:103:1,2011-09-05T19:00:00Z,30.1889,-90.1683,0.0,1.138,1111122 
LUMCON,ioos:station:LUMCON:103:1,2011-09-05T20:00:00Z,30.1889,-90.1683,0.0,1.129,1111122 
LUMCON,ioos:station:LUMCON:103:1,2011-09-05T21:00:00Z,30.1889,-90.1683,0.0,1.135,1111122 
LUMCON,ioos:station:LUMCON:103:1,2011-09-05T22:00:00Z,30.1889,-90.1683,0.0,1.134,1111122 
LUMCON,ioos:station:LUMCON:103:1,2011-09-05T23:00:00Z,30.1889,-90.1683,0.0,1.143,1111122 
LUMCON,ioos:station:LUMCON:103:1,2011-09-06T02:00:00Z,30.1889,-90.1683,0.0,1.065,1111122 
LUMCON,ioos:station:LUMCON:103:1,2011-09-06T03:00:00Z,30.1889,-90.1683,0.0,1.11,1111122 
LUMCON,ioos:station:LUMCON:103:1,2011-09-06T04:00:00Z,30.1889,-90.1683,0.0,1.192,1111122 
LUMCON,ioos:station:LUMCON:103:1,2011-09-06T05:00:00Z,30.1889,-90.1683,0.0,1.078,1111122 
LUMCON,ioos:station:LUMCON:103:1,2011-09-06T06:00:00Z,30.1889,-90.1683,0.0,1.019,1111122 
LUMCON,ioos:station:LUMCON:103:1,2011-09-06T09:00:00Z,30.1889,-90.1683,0.0,1.035,1111122 
LUMCON,ioos:station:LUMCON:103:1,2011-09-06T13:00:00Z,30.1889,-90.1683,0.0,1.037,1111122 
LUMCON,ioos:station:LUMCON:103:1,2011-09-06T17:00:00Z,30.1889,-90.1683,0.0,1.036,1111122 
LUMCON,ioos:station:LUMCON:103:1,2011-09-06T18:00:00Z,30.1889,-90.1683,0.0,1.05,1111122 
LUMCON,ioos:station:LUMCON:103:1,2011-09-06T19:00:00Z,30.1889,-90.1683,0.0,1.048,1111122 
LUMCON,ioos:station:LUMCON:103:1,2011-09-06T20:00:00Z,30.1889,-90.1683,0.0,1.04,1111122 
LUMCON,ioos:station:LUMCON:103:1,2011-09-06T21:00:00Z,30.1889,-90.1683,0.0,1.034,1111122 
LUMCON,ioos:station:LUMCON:103:1,2011-09-06T22:00:00Z,30.1889,-90.1683,0.0,1.032,1111122 
LUMCON,ioos:station:LUMCON:103:1,2011-09-06T23:00:00Z,30.1889,-90.1683,0.0,1.046,1111122 
LUMCON,ioos:station:LUMCON:103:1,2011-09-07T02:00:00Z,30.1889,-90.1683,0.0,1.056,1111122 
LUMCON,ioos:station:LUMCON:103:1,2011-09-07T03:00:00Z,30.1889,-90.1683,0.0,1.066,1111122 
LUMCON,ioos:station:LUMCON:103:1,2011-09-07T04:00:00Z,30.1889,-90.1683,0.0,1.089,1111122 
LUMCON,ioos:station:LUMCON:103:1,2011-09-07T05:00:00Z,30.1889,-90.1683,0.0,0.952,1111122 
LUMCON,ioos:station:LUMCON:103:1,2011-09-07T06:00:00Z,30.1889,-90.1683,0.0,0.917,1111122 
LUMCON,ioos:station:LUMCON:103:1,2011-09-07T07:00:00Z,30.1889,-90.1683,0.0,0.927,1111122 
LUMCON,ioos:station:LUMCON:103:1,2011-09-07T08:00:00Z,30.1889,-90.1683,0.0,0.926,1111122 
LUMCON,ioos:station:LUMCON:103:1,2011-09-07T10:00:00Z,30.1889,-90.1683,0.0,0.95,1111122 
LUMCON,ioos:station:LUMCON:103:1,2011-09-07T11:00:00Z,30.1889,-90.1683,0.0,0.943,1111122 
LUMCON,ioos:station:LUMCON:103:1,2011-09-07T12:00:00Z,30.1889,-90.1683,0.0,0.941,1111122 
LUMCON,ioos:station:LUMCON:103:1,2011-09-07T13:00:00Z,30.1889,-90.1683,0.0,0.94,1111122 
LUMCON,ioos:station:LUMCON:103:1,2011-09-07T14:00:00Z,30.1889,-90.1683,0.0,0.943,1111122 
LUMCON,ioos:station:LUMCON:103:1,2011-09-07T15:00:00Z,30.1889,-90.1683,0.0,0.939,1111122 
LUMCON,ioos:station:LUMCON:103:1,2011-09-07T16:00:00Z,30.1889,-90.1683,0.0,0.925,1111122 
LUMCON,ioos:station:LUMCON:103:1,2011-09-07T18:00:00Z,30.1889,-90.1683,0.0,0.926,1111122 
LUMCON,ioos:station:LUMCON:103:1,2011-09-07T19:00:00Z,30.1889,-90.1683,0.0,0.931,1111122 
LUMCON,ioos:station:LUMCON:103:1,2011-09-07T20:00:00Z,30.1889,-90.1683,0.0,0.939,1111122 
LUMCON,ioos:station:LUMCON:103:1,2011-09-07T22:00:00Z,30.1889,-90.1683,0.0,0.94,1111122 
LUMCON,ioos:station:LUMCON:103:1,2011-09-08T01:00:00Z,30.1889,-90.1683,0.0,1.05,1111122 
LUMCON,ioos:station:LUMCON:103:1,2011-09-08T02:00:00Z,30.1889,-90.1683,0.0,1.046,1111122 
LUMCON,ioos:station:LUMCON:103:1,2011-09-08T03:00:00Z,30.1889,-90.1683,0.0,1.022,1111122 
LUMCON,ioos:station:LUMCON:103:1,2011-09-08T04:00:00Z,30.1889,-90.1683,0.0,0.997,1111122 
LUMCON,ioos:station:LUMCON:103:1,2011-09-08T06:00:00Z,30.1889,-90.1683,0.0,0.872,1111122 
LUMCON,ioos:station:LUMCON:103:1,2011-09-08T08:00:00Z,30.1889,-90.1683,0.0,0.86,1111122 
LUMCON,ioos:station:LUMCON:103:1,2011-09-08T09:00:00Z,30.1889,-90.1683,0.0,0.872,1111122 
LUMCON,ioos:station:LUMCON:103:1,2011-09-08T10:00:00Z,30.1889,-90.1683,0.0,0.88,1111122 
LUMCON,ioos:station:LUMCON:103:1,2011-09-08T11:00:00Z,30.1889,-90.1683,0.0,0.885,1111122 
LUMCON,ioos:station:LUMCON:103:1,2011-09-08T12:00:00Z,30.1889,-90.1683,0.0,0.89,1111122 
LUMCON,ioos:station:LUMCON:103:1,2011-09-08T13:00:00Z,30.1889,-90.1683,0.0,0.895,1111122 
LUMCON,ioos:station:LUMCON:103:1,2011-09-08T14:00:00Z,30.1889,-90.1683,0.0,0.9,1111122 
LUMCON,ioos:station:LUMCON:103:1,2011-09-08T15:00:00Z,30.1889,-90.1683,0.0,0.9,1111122 
LUMCON,ioos:station:LUMCON:103:1,2011-09-08T16:00:00Z,30.1889,-90.1683,0.0,0.908,1111122 
LUMCON,ioos:station:LUMCON:103:1,2011-09-08T17:00:00Z,30.1889,-90.1683,0.0,0.893,1111122 
LUMCON,ioos:station:LUMCON:103:1,2011-09-08T18:00:00Z,30.1889,-90.1683,0.0,0.891,1111122 
LUMCON,ioos:station:LUMCON:103:1,2011-09-08T19:00:00Z,30.1889,-90.1683,0.0,0.892,1111122 
LUMCON,ioos:station:LUMCON:103:1,2011-09-08T21:00:00Z,30.1889,-90.1683,0.0,0.907,1111122 
LUMCON,ioos:station:LUMCON:103:1,2011-09-08T22:00:00Z,30.1889,-90.1683,0.0,0.912,1111122 
LUMCON,ioos:station:LUMCON:103:1,2011-09-09T01:00:00Z,30.1889,-90.1683,0.0,0.94,1111122 
LUMCON,ioos:station:LUMCON:103:1,2011-09-09T02:00:00Z,30.1889,-90.1683,0.0,0.948,1111122 
LUMCON,ioos:station:LUMCON:103:1,2011-09-09T03:00:00Z,30.1889,-90.1683,0.0,0.95,1111122 
LUMCON,ioos:station:LUMCON:103:1,2011-09-09T04:00:00Z,30.1889,-90.1683,0.0,0.955,1111122 
LUMCON,ioos:station:LUMCON:103:1,2011-09-09T05:00:00Z,30.1889,-90.1683,0.0,0.893,1111122 
LUMCON,ioos:station:LUMCON:103:1,2011-09-09T06:00:00Z,30.1889,-90.1683,0.0,0.88,1111122 
LUMCON,ioos:station:LUMCON:103:1,2011-09-09T07:00:00Z,30.1889,-90.1683,0.0,0.874,1111122 
LUMCON,ioos:station:LUMCON:103:1,2011-09-09T08:00:00Z,30.1889,-90.1683,0.0,0.87,1111122 
LUMCON,ioos:station:LUMCON:103:1,2011-09-09T09:00:00Z,30.1889,-90.1683,0.0,0.868,1111122 
LUMCON,ioos:station:LUMCON:103:1,2011-09-09T10:00:00Z,30.1889,-90.1683,0.0,0.86,1111122 
LUMCON,ioos:station:LUMCON:103:1,2011-09-09T11:00:00Z,30.1889,-90.1683,0.0,0.874,1111122 
LUMCON,ioos:station:LUMCON:103:1,2011-09-09T12:00:00Z,30.1889,-90.1683,0.0,0.884,1111122 
LUMCON,ioos:station:LUMCON:103:1,2011-09-09T13:00:00Z,30.1889,-90.1683,0.0,0.888,1111122 
LUMCON,ioos:station:LUMCON:103:1,2011-09-09T14:00:00Z,30.1889,-90.1683,0.0,0.889,1111122 
LUMCON,ioos:station:LUMCON:103:1,2011-09-09T15:00:00Z,30.1889,-90.1683,0.0,0.894,1111122 
LUMCON,ioos:station:LUMCON:103:1,2011-09-09T16:00:00Z,30.1889,-90.1683,0.0,0.883,1111122 
LUMCON,ioos:station:LUMCON:103:1,2011-09-09T19:00:00Z,30.1889,-90.1683,0.0,0.866,1111122 
LUMCON,ioos:station:LUMCON:103:1,2011-09-09T21:00:00Z,30.1889,-90.1683,0.0,0.88,1111122 
LUMCON,ioos:station:LUMCON:103:1,2011-09-09T22:00:00Z,30.1889,-90.1683,0.0,0.88,1111122 
LUMCON,ioos:station:LUMCON:103:1,2011-09-10T01:00:00Z,30.1889,-90.1683,0.0,0.901,1111122 
LUMCON,ioos:station:LUMCON:103:1,2011-09-10T02:00:00Z,30.1889,-90.1683,0.0,0.907,1111122 
LUMCON,ioos:station:LUMCON:103:1,2011-09-10T03:00:00Z,30.1889,-90.1683,0.0,0.908,1111122 
LUMCON,ioos:station:LUMCON:103:1,2011-09-10T04:00:00Z,30.1889,-90.1683,0.0,0.899,1111122 
LUMCON,ioos:station:LUMCON:103:1,2011-09-10T06:00:00Z,30.1889,-90.1683,0.0,0.87,1111122 
LUMCON,ioos:station:LUMCON:103:1,2011-09-10T07:00:00Z,30.1889,-90.1683,0.0,0.869,1111122 
LUMCON,ioos:station:LUMCON:103:1,2011-09-10T08:00:00Z,30.1889,-90.1683,0.0,0.87,1111122 
LUMCON,ioos:station:LUMCON:103:1,2011-09-10T11:00:00Z,30.1889,-90.1683,0.0,0.887,1111122 
LUMCON,ioos:station:LUMCON:103:1,2011-09-10T12:00:00Z,30.1889,-90.1683,0.0,0.901,1111122 
LUMCON,ioos:station:LUMCON:103:1,2011-09-10T13:00:00Z,30.1889,-90.1683,0.0,0.899,1111122 
LUMCON,ioos:station:LUMCON:103:1,2011-09-10T14:00:00Z,30.1889,-90.1683,0.0,0.901,1111122 
LUMCON,ioos:station:LUMCON:103:1,2011-09-10T15:00:00Z,30.1889,-90.1683,0.0,0.893,1111122 
LUMCON,ioos:station:LUMCON:103:1,2011-09-10T16:00:00Z,30.1889,-90.1683,0.0,0.895,1111122 
LUMCON,ioos:station:LUMCON:103:1,2011-09-10T17:00:00Z,30.1889,-90.1683,0.0,0.861,1111122 
LUMCON,ioos:station:LUMCON:103:1,2011-09-10T19:00:00Z,30.1889,-90.1683,0.0,0.859,1111122 
LUMCON,ioos:station:LUMCON:103:1,2011-09-10T21:00:00Z,30.1889,-90.1683,0.0,0.894,1111122 
LUMCON,ioos:station:LUMCON:103:1,2011-09-11T01:00:00Z,30.1889,-90.1683,0.0,0.881,1111122 
LUMCON,ioos:station:LUMCON:103:1,2011-09-11T02:00:00Z,30.1889,-90.1683,0.0,0.886,1111122 
LUMCON,ioos:station:LUMCON:103:1,2011-09-11T03:00:00Z,30.1889,-90.1683,0.0,0.879,1111122 
LUMCON,ioos:station:LUMCON:103:1,2011-09-11T04:00:00Z,30.1889,-90.1683,0.0,0.878,1111122 
LUMCON,ioos:station:LUMCON:103:1,2011-09-12T01:00:00Z,30.1889,-90.1683,0.0,0.956,1111122 
LUMCON,ioos:station:LUMCON:103:1,2011-09-12T02:00:00Z,30.1889,-90.1683,0.0,0.958,1111122 
LUMCON,ioos:station:LUMCON:103:1,2011-09-12T03:00:00Z,30.1889,-90.1683,0.0,0.966,1111122 
LUMCON,ioos:station:LUMCON:103:1,2011-09-12T14:00:00Z,30.1889,-90.1683,0.0,3.871,1111122 
LUMCON,ioos:station:LUMCON:103:1,2011-09-12T15:00:00Z,30.1889,-90.1683,0.0,4.072,1111122 
LUMCON,ioos:station:LUMCON:103:1,2011-09-12T16:00:00Z,30.1889,-90.1683,0.0,4.185,1111122 
LUMCON,ioos:station:LUMCON:103:1,2011-09-12T17:00:00Z,30.1889,-90.1683,0.0,4.31,1111122 
LUMCON,ioos:station:LUMCON:103:1,2011-09-12T18:00:00Z,30.1889,-90.1683,0.0,3.885,1111122 
LUMCON,ioos:station:LUMCON:103:1,2011-09-12T20:00:00Z,30.1889,-90.1683,0.0,2.578,1111122 
LUMCON,ioos:station:LUMCON:103:1,2011-09-13T01:00:00Z,30.1889,-90.1683,0.0,3.629,1111122 
LUMCON,ioos:station:LUMCON:103:1,2011-09-13T02:00:00Z,30.1889,-90.1683,0.0,3.386,1111122 
LUMCON,ioos:station:LUMCON:103:1,2011-09-13T03:00:00Z,30.1889,-90.1683,0.0,3.931,1111122 
LUMCON,ioos:station:LUMCON:103:1,2011-09-13T04:00:00Z,30.1889,-90.1683,0.0,2.613,1111122 
LUMCON,ioos:station:LUMCON:103:1,2011-09-13T08:00:00Z,30.1889,-90.1683,0.0,1.995,1111122 
LUMCON,ioos:station:LUMCON:103:1,2011-09-13T09:00:00Z,30.1889,-90.1683,0.0,1.86,1111122 
LUMCON,ioos:station:LUMCON:103:1,2011-09-13T10:00:00Z,30.1889,-90.1683,0.0,1.844,1111122 
LUMCON,ioos:station:LUMCON:103:1,2011-09-13T12:00:00Z,30.1889,-90.1683,0.0,3.031,1111122 
LUMCON,ioos:station:LUMCON:103:1,2011-09-13T13:00:00Z,30.1889,-90.1683,0.0,3.658,1111122 
LUMCON,ioos:station:LUMCON:103:1,2011-09-13T15:00:00Z,30.1889,-90.1683,0.0,3.611,1111122 
LUMCON,ioos:station:LUMCON:103:1,2011-09-13T16:00:00Z,30.1889,-90.1683,0.0,3.137,1111122 
LUMCON,ioos:station:LUMCON:103:1,2011-09-13T19:00:00Z,30.1889,-90.1683,0.0,2.146,1111122 
LUMCON,ioos:station:LUMCON:103:1,2011-09-13T20:00:00Z,30.1889,-90.1683,0.0,1.667,1111122 
LUMCON,ioos:station:LUMCON:103:1,2011-09-13T23:00:00Z,30.1889,-90.1683,0.0,1.887,1111122 
LUMCON,ioos:station:LUMCON:103:1,2011-09-14T01:00:00Z,30.1889,-90.1683,0.0,2.157,1111122 
LUMCON,ioos:station:LUMCON:103:1,2011-09-14T02:00:00Z,30.1889,-90.1683,0.0,2.331,1111122 
LUMCON,ioos:station:LUMCON:103:1,2011-09-14T03:00:00Z,30.1889,-90.1683,0.0,2.466,1111122 
LUMCON,ioos:station:LUMCON:103:1,2011-09-14T04:00:00Z,30.1889,-90.1683,0.0,1.728,1111122 
LUMCON,ioos:station:LUMCON:103:1,2011-09-14T05:00:00Z,30.1889,-90.1683,0.0,1.89,1111122 
LUMCON,ioos:station:LUMCON:103:1,2011-09-14T06:00:00Z,30.1889,-90.1683,0.0,2.094,1111122 
LUMCON,ioos:station:LUMCON:103:1,2011-09-14T07:00:00Z,30.1889,-90.1683,0.0,2.29,1111122 
LUMCON,ioos:station:LUMCON:103:1,2011-09-14T08:00:00Z,30.1889,-90.1683,0.0,2.751,1111122 
LUMCON,ioos:station:LUMCON:103:1,2011-09-14T10:00:00Z,30.1889,-90.1683,0.0,3.625,1111122 
LUMCON,ioos:station:LUMCON:103:1,2011-09-14T11:00:00Z,30.1889,-90.1683,0.0,4.451,1111122 
LUMCON,ioos:station:LUMCON:103:1,2011-09-14T12:00:00Z,30.1889,-90.1683,0.0,4.798,1111122 
LUMCON,ioos:station:LUMCON:103:1,2011-09-14T13:00:00Z,30.1889,-90.1683,0.0,5.005,1111122 
LUMCON,ioos:station:LUMCON:103:1,2011-09-14T14:00:00Z,30.1889,-90.1683,0.0,4.944,1111122 
LUMCON,ioos:station:LUMCON:103:1,2011-09-14T15:00:00Z,30.1889,-90.1683,0.0,4.546,1111122 
LUMCON,ioos:station:LUMCON:103:1,2011-09-14T17:00:00Z,30.1889,-90.1683,0.0,4.008,1111122 
LUMCON,ioos:station:LUMCON:103:1,2011-09-14T18:00:00Z,30.1889,-90.1683,0.0,3.691,1111122 
LUMCON,ioos:station:LUMCON:103:1,2011-09-14T20:00:00Z,30.1889,-90.1683,0.0,2.462,1111122 
LUMCON,ioos:station:LUMCON:103:1,2011-09-14T22:00:00Z,30.1889,-90.1683,0.0,2.271,1111122 
LUMCON,ioos:station:LUMCON:103:1,2011-09-15T01:00:00Z,30.1889,-90.1683,0.0,1.81,1111122 
LUMCON,ioos:station:LUMCON:103:1,2011-09-15T02:00:00Z,30.1889,-90.1683,0.0,1.775,1111122 
LUMCON,ioos:station:LUMCON:103:1,2011-09-15T03:00:00Z,30.1889,-90.1683,0.0,1.788,1111122 
LUMCON,ioos:station:LUMCON:103:1,2011-09-15T04:00:00Z,30.1889,-90.1683,0.0,1.809,1111122 
LUMCON,ioos:station:LUMCON:103:1,2011-09-15T05:00:00Z,30.1889,-90.1683,0.0,4.145,1111122 
LUMCON,ioos:station:LUMCON:103:1,2011-09-15T06:00:00Z,30.1889,-90.1683,0.0,4.503,1111122 
LUMCON,ioos:station:LUMCON:103:1,2011-09-15T07:00:00Z,30.1889,-90.1683,0.0,5.075,1111122 
LUMCON,ioos:station:LUMCON:103:1,2011-09-15T08:00:00Z,30.1889,-90.1683,0.0,5.242,1111122 
LUMCON,ioos:station:LUMCON:103:1,2011-09-15T09:00:00Z,30.1889,-90.1683,0.0,5.508,1111122 
LUMCON,ioos:station:LUMCON:103:1,2011-09-15T10:00:00Z,30.1889,-90.1683,0.0,5.708,1111122 
LUMCON,ioos:station:LUMCON:103:1,2011-09-15T11:00:00Z,30.1889,-90.1683,0.0,5.813,1111122 
LUMCON,ioos:station:LUMCON:103:1,2011-09-15T12:00:00Z,30.1889,-90.1683,0.0,5.765,1111122 
LUMCON,ioos:station:LUMCON:103:1,2011-09-15T13:00:00Z,30.1889,-90.1683,0.0,5.407,1111122 
LUMCON,ioos:station:LUMCON:103:1,2011-09-15T15:00:00Z,30.1889,-90.1683,0.0,5.592,1111122 
LUMCON,ioos:station:LUMCON:103:1,2011-09-15T16:00:00Z,30.1889,-90.1683,0.0,5.51,1111122 
LUMCON,ioos:station:LUMCON:103:1,2011-09-15T17:00:00Z,30.1889,-90.1683,0.0,5.02,1111122 
LUMCON,ioos:station:LUMCON:103:1,2011-09-15T18:00:00Z,30.1889,-90.1683,0.0,4.82,1111122 
LUMCON,ioos:station:LUMCON:103:1,2011-09-15T19:00:00Z,30.1889,-90.1683,0.0,3.955,1111122 
LUMCON,ioos:station:LUMCON:103:1,2011-09-15T20:00:00Z,30.1889,-90.1683,0.0,3.23,1111122 
LUMCON,ioos:station:LUMCON:103:1,2011-09-15T22:00:00Z,30.1889,-90.1683,0.0,2.943,1111122 
LUMCON,ioos:station:LUMCON:103:1,2011-09-15T23:00:00Z,30.1889,-90.1683,0.0,2.706,1111122 
LUMCON,ioos:station:LUMCON:103:1,2011-09-16T01:00:00Z,30.1889,-90.1683,0.0,2.359,1111122 
LUMCON,ioos:station:LUMCON:103:1,2011-09-16T02:00:00Z,30.1889,-90.1683,0.0,2.556,1111122 
LUMCON,ioos:station:LUMCON:103:1,2011-09-16T03:00:00Z,30.1889,-90.1683,0.0,3.075,1111122 
LUMCON,ioos:station:LUMCON:103:1,2011-09-16T04:00:00Z,30.1889,-90.1683,0.0,3.545,1111122 
LUMCON,ioos:station:LUMCON:103:1,2011-09-16T06:00:00Z,30.1889,-90.1683,0.0,2.855,1111122 
LUMCON,ioos:station:LUMCON:103:1,2011-09-16T07:00:00Z,30.1889,-90.1683,0.0,2.91,1111122 
LUMCON,ioos:station:LUMCON:103:1,2011-09-16T08:00:00Z,30.1889,-90.1683,0.0,2.922,1111122 
LUMCON,ioos:station:LUMCON:103:1,2011-09-16T10:00:00Z,30.1889,-90.1683,0.0,2.895,1111122 
LUMCON,ioos:station:LUMCON:103:1,2011-09-16T11:00:00Z,30.1889,-90.1683,0.0,2.88,1111122 
LUMCON,ioos:station:LUMCON:103:1,2011-09-16T12:00:00Z,30.1889,-90.1683,0.0,2.86,1111122 
LUMCON,ioos:station:LUMCON:103:1,2011-09-16T13:00:00Z,30.1889,-90.1683,0.0,2.897,1111122 
LUMCON,ioos:station:LUMCON:103:1,2011-09-16T14:00:00Z,30.1889,-90.1683,0.0,2.863,1111122 
LUMCON,ioos:station:LUMCON:103:1,2011-09-16T15:00:00Z,30.1889,-90.1683,0.0,2.768,1111122 
LUMCON,ioos:station:LUMCON:103:1,2011-09-16T16:00:00Z,30.1889,-90.1683,0.0,2.783,1111122 
LUMCON,ioos:station:LUMCON:103:1,2011-09-16T19:00:00Z,30.1889,-90.1683,0.0,2.753,1111122 
LUMCON,ioos:station:LUMCON:103:1,2011-09-16T20:00:00Z,30.1889,-90.1683,0.0,2.728,1111122 
LUMCON,ioos:station:LUMCON:103:1,2011-09-16T21:00:00Z,30.1889,-90.1683,0.0,2.729,1111122 
LUMCON,ioos:station:LUMCON:103:1,2011-09-16T22:00:00Z,30.1889,-90.1683,0.0,2.85,1111122 
LUMCON,ioos:station:LUMCON:103:1,2011-09-17T01:00:00Z,30.1889,-90.1683,0.0,2.65,1111122 
LUMCON,ioos:station:LUMCON:103:1,2011-09-17T02:00:00Z,30.1889,-90.1683,0.0,2.772,1111122 
LUMCON,ioos:station:LUMCON:103:1,2011-09-17T03:00:00Z,30.1889,-90.1683,0.0,2.799,1111122 
LUMCON,ioos:station:LUMCON:103:1,2011-09-17T04:00:00Z,30.1889,-90.1683,0.0,2.74,1111122 
LUMCON,ioos:station:LUMCON:103:1,2011-09-17T05:00:00Z,30.1889,-90.1683,0.0,2.894,1111122 
LUMCON,ioos:station:LUMCON:103:1,2011-09-17T07:00:00Z,30.1889,-90.1683,0.0,2.88,1111122 
LUMCON,ioos:station:LUMCON:103:1,2011-09-17T08:00:00Z,30.1889,-90.1683,0.0,2.864,1111122 
LUMCON,ioos:station:LUMCON:103:1,2011-09-17T09:00:00Z,30.1889,-90.1683,0.0,2.694,1111122 
LUMCON,ioos:station:LUMCON:103:1,2011-09-17T10:00:00Z,30.1889,-90.1683,0.0,2.698,1111122 
LUMCON,ioos:station:LUMCON:103:1,2011-09-17T11:00:00Z,30.1889,-90.1683,0.0,2.752,1111122 
LUMCON,ioos:station:LUMCON:103:1,2011-09-17T13:00:00Z,30.1889,-90.1683,0.0,2.733,1111122 
LUMCON,ioos:station:LUMCON:103:1,2011-09-17T14:00:00Z,30.1889,-90.1683,0.0,2.712,1111122 
LUMCON,ioos:station:LUMCON:103:1,2011-09-17T15:00:00Z,30.1889,-90.1683,0.0,2.726,1111122 
LUMCON,ioos:station:LUMCON:103:1,2011-09-17T16:00:00Z,30.1889,-90.1683,0.0,2.8,1111122 
LUMCON,ioos:station:LUMCON:103:1,2011-09-17T18:00:00Z,30.1889,-90.1683,0.0,2.789,1111122 
LUMCON,ioos:station:LUMCON:103:1,2011-09-17T19:00:00Z,30.1889,-90.1683,0.0,2.792,1111122 
LUMCON,ioos:station:LUMCON:103:1,2011-09-17T20:00:00Z,30.1889,-90.1683,0.0,2.791,1111122 
LUMCON,ioos:station:LUMCON:103:1,2011-09-17T21:00:00Z,30.1889,-90.1683,0.0,2.779,1111122 
LUMCON,ioos:station:LUMCON:103:1,2011-09-17T23:00:00Z,30.1889,-90.1683,0.0,2.979,1111122 
LUMCON,ioos:station:LUMCON:103:1,2011-09-18T01:00:00Z,30.1889,-90.1683,0.0,3.086,1111122 
LUMCON,ioos:station:LUMCON:103:1,2011-09-18T02:00:00Z,30.1889,-90.1683,0.0,3.123,1111122 
LUMCON,ioos:station:LUMCON:103:1,2011-09-18T03:00:00Z,30.1889,-90.1683,0.0,3.078,1111122 
LUMCON,ioos:station:LUMCON:103:1,2011-09-18T04:00:00Z,30.1889,-90.1683,0.0,2.947,1111122 
LUMCON,ioos:station:LUMCON:103:1,2011-09-18T05:00:00Z,30.1889,-90.1683,0.0,2.818,1111122 
LUMCON,ioos:station:LUMCON:103:1,2011-09-18T07:00:00Z,30.1889,-90.1683,0.0,2.813,1111122 
LUMCON,ioos:station:LUMCON:103:1,2011-09-18T08:00:00Z,30.1889,-90.1683,0.0,2.89,1111122 
LUMCON,ioos:station:LUMCON:103:1,2011-09-18T09:00:00Z,30.1889,-90.1683,0.0,2.899,1111122 
LUMCON,ioos:station:LUMCON:103:1,2011-09-18T10:00:00Z,30.1889,-90.1683,0.0,2.937,1111122 
LUMCON,ioos:station:LUMCON:103:1,2011-09-18T11:00:00Z,30.1889,-90.1683,0.0,2.976,1111122 
LUMCON,ioos:station:LUMCON:103:1,2011-09-18T12:00:00Z,30.1889,-90.1683,0.0,3.061,1111122 
LUMCON,ioos:station:LUMCON:103:1,2011-09-18T13:00:00Z,30.1889,-90.1683,0.0,3.127,1111122 
LUMCON,ioos:station:LUMCON:103:1,2011-09-18T14:00:00Z,30.1889,-90.1683,0.0,3.12,1111122 
LUMCON,ioos:station:LUMCON:103:1,2011-09-18T15:00:00Z,30.1889,-90.1683,0.0,3.11,1111122 
LUMCON,ioos:station:LUMCON:103:1,2011-09-18T16:00:00Z,30.1889,-90.1683,0.0,3.113,1111122 
LUMCON,ioos:station:LUMCON:103:1,2011-09-18T17:00:00Z,30.1889,-90.1683,0.0,3.095,1111122 
LUMCON,ioos:station:LUMCON:103:1,2011-09-18T18:00:00Z,30.1889,-90.1683,0.0,3.116,1111122 
LUMCON,ioos:station:LUMCON:103:1,2011-09-18T19:00:00Z,30.1889,-90.1683,0.0,3.113,1111122 
LUMCON,ioos:station:LUMCON:103:1,2011-09-18T20:00:00Z,30.1889,-90.1683,0.0,3.106,1111122 
LUMCON,ioos:station:LUMCON:103:1,2011-09-18T21:00:00Z,30.1889,-90.1683,0.0,3.085,1111122 
LUMCON,ioos:station:LUMCON:103:1,2011-09-18T22:00:00Z,30.1889,-90.1683,0.0,3.106,1111122 
LUMCON,ioos:station:LUMCON:103:1,2011-09-18T23:00:00Z,30.1889,-90.1683,0.0,3.03,1111122 
LUMCON,ioos:station:LUMCON:103:1,2011-09-19T01:00:00Z,30.1889,-90.1683,0.0,2.795,1111122 
LUMCON,ioos:station:LUMCON:103:1,2011-09-19T02:00:00Z,30.1889,-90.1683,0.0,2.824,1111122 
LUMCON,ioos:station:LUMCON:103:1,2011-09-19T03:00:00Z,30.1889,-90.1683,0.0,2.9,1111122 
LUMCON,ioos:station:LUMCON:103:1,2011-09-19T04:00:00Z,30.1889,-90.1683,0.0,2.826,1111122 
LUMCON,ioos:station:LUMCON:103:1,2011-09-19T05:00:00Z,30.1889,-90.1683,0.0,2.56,1111122 